Location: Fours
(44.3167°N, 6.7000°E)
Time: 09:42:50
(UTC+00:00)

Cosmos 2344 - Pass Details

Date: 16 October 2021
Orbit: 1233 x 3009 km, 63.3° (Epoch: 07 December)

Event Time Altitude Azimuth Distance (km) Brightness Sun altitude
Rises 20:02:35 0° 321° (NW) 4,561 7.3 -35.1°
Reaches altitude 10° 20:05:11 10° 321° (NW) 3,721 6.7 -35.5°
Maximum altitude 20:14:34 83° 235° (SW) 1,924 4.3 -37.0°
Enters shadow 20:16:04 72° 167° (SSE) 2,058 4.3 -37.3°
